(100664) = 1997 WP45 = 1997 WZ35 = 2001 SP51

Discovered at Socorro on 1997-11-29 by LINEAR.

Orbit

Orbit type: Main Belt

Note: WebGL enabled browser required.

epoch2024-03-31.0
epoch JD2460400.5
perihelion date2023-07-31.00357
perihelion JD2460156.50357
argument of perihelion (°)5.25640
ascending node (°)39.82027
inclination (°)6.48274
eccentricity0.1812017
perihelion distance (AU)2.1667039
Tisserand w.r.t. Jupiter3.4
ΔV w.r.t. Earth (km/sec)9.5
semimajor axis (AU)2.6461998
mean anomaly (°)55.86674
mean daily motion (°/day)0.22896540
aphelion distance (AU)3.126
period (years)4.3
P-vector [x]0.70653507
P-vector [y]0.64509815
P-vector [z]0.29095802
Q-vector [x]-0.70397491
Q-vector [y]0.59868052
Q-vector [z]0.38210073
absolute magnitude15.36
phase slope0.15
uncertainty0
referenceMPEC 2024-C181
observations used2329
oppositions18
arc length (days)9627
first opposition used1997
last opposition used2024
residual rms (arc-secs)0.56
perturbers coarse indicatorM-v
perturbers precise indicator003Ek
first observation date used1997-10-06.0
last observation date used2024-02-14.0
computer nameMPCLINUX
JD of orbit computation2456966.880567
perihelion JD uncertainty (days)4.5976E-05
argument of perihelion uncertainty (°)2.9538E-05
ascending node uncertainty (°)2.6905E-05
inclination uncertainty (°)4.7806E-06
eccentricity uncertainty 3.9585E-08
perihelion distance uncertainty (AU)1.0399E-07
Minimum Orbit Intersection Distances (in AU)
for orbit epoch: 2460400.5, reference: E2024-CI1
Mercury1.84741
Venus1.44452
Earth1.17622
Mars0.68101
Jupiter2.27565
Saturn6.57336
Uranus15.4966
Neptune27.5152

Observations

2376 total observations over interval: 1997 10 06.80160 – 2024 02 14.319275
These data are available for download (format description).

Date (UT) J2000 RA J2000 Dec Magn Location Ref
1997 10 06.80160 04 42 30.31 +23 45 26.0 18.7   327 – Peking Observatory, Xinglong Station MPS 37402
1997 10 06.81174 04 42 30.46 +23 45 28.7   327 – Peking Observatory, Xinglong Station MPS 37402
1997 10 06.82200 04 42 30.62 +23 45 31.4   327 – Peking Observatory, Xinglong Station MPS 37402
1997 11 26.16780 04 18 05.34 +26 33 00.3 18.2   704 – Lincoln Laboratory ETS, New Mexico MPS 312
1997 11 26.19183 04 18 03.75 +26 33 02.0 18.0   704 – Lincoln Laboratory ETS, New Mexico MPS 312
1997 11 26.21570 04 18 02.09 +26 33 04.4 17.9   704 – Lincoln Laboratory ETS, New Mexico MPS 312
1997 11 29.16094 04 14 51.58 +26 36 07.8 17.5   704 – Lincoln Laboratory ETS, New Mexico MPS 312
1997 11 29.18317 04 14 50.12 +26 36 08.7   704 – Lincoln Laboratory ETS, New Mexico MPS 312
1997 11 29.20188 04 14 48.87 +26 36 09.4 17.5   704 – Lincoln Laboratory ETS, New Mexico MPS 312
1997 11 29.24734 04 14 45.80 +26 36 09.8 17.8   704 – Lincoln Laboratory ETS, New Mexico MPS 312
1997 11 30.53236 04 13 22.28 +26 37 16.3 18.8 V 566 – Haleakala-NEAT/GEODSS MPC 31046
1997 11 30.54242 04 13 21.63 +26 37 16.9 18.4 V 566 – Haleakala-NEAT/GEODSS MPC 31046
1997 11 30.55278 04 13 20.92 +26 37 17.5 18.7 V 566 – Haleakala-NEAT/GEODSS MPC 31046
1997 12 04.23249 04 09 27.59 +26 39 21.6 16.9   704 – Lincoln Laboratory ETS, New Mexico MPS 312
1997 12 04.25243 04 09 26.35 +26 39 21.7 17.4   704 – Lincoln Laboratory ETS, New Mexico MPS 312
1997 12 04.26896 04 09 25.28 +26 39 26.2 17.6   704 – Lincoln Laboratory ETS, New Mexico MPS 312
1997 12 04.28556 04 09 24.01 +26 39 23.2 17.7   704 – Lincoln Laboratory ETS, New Mexico MPS 312
1997 12 04.30702 04 09 22.75 +26 39 24.3 17.5   704 – Lincoln Laboratory ETS, New Mexico MPS 312
2001 08 27.41554 01 13 56.32 +00 35 57.3 18.4 R 699 – Lowell Observatory-LONEOS MPS 37402
2001 08 27.43444 01 13 56.15 +00 35 56.4   699 – Lowell Observatory-LONEOS MPS 37402
2001 08 27.45340 01 13 55.96 +00 35 55.8   699 – Lowell Observatory-LONEOS MPS 37402
2001 08 27.47245 01 13 55.83 +00 35 55.3   699 – Lowell Observatory-LONEOS MPS 37402
2001 09 15.26726 01 06 43.59 +00 07 47.2 18.5   644 – Palomar Mountain/NEAT MPS 37402
2001 09 15.28842 01 06 42.72 +00 07 44.2 18.9   644 – Palomar Mountain/NEAT MPS 37402
2001 09 15.31029 01 06 41.87 +00 07 41.3 18.3   644 – Palomar Mountain/NEAT MPS 37402
2001 09 16.41802 01 05 58.03 +00 05 04.8 18.4   704 – Lincoln Laboratory ETS, New Mexico MPS 36552
2001 09 16.43511 01 05 57.31 +00 05 02.9 18.6   704 – Lincoln Laboratory ETS, New Mexico MPS 36552
2001 09 16.45349 01 05 56.56 +00 05 00.1 18.5   704 – Lincoln Laboratory ETS, New Mexico MPS 36552
2001 09 16.47304 01 05 55.72 +00 04 57.8 18.7   704 – Lincoln Laboratory ETS, New Mexico MPS 36552
2001 09 18.28342 01 04 41.13 +00 00 36.1 17.6 R 699 – Lowell Observatory-LONEOS MPS 37402
2001 09 18.30686 01 04 40.09 +00 00 32.3   699 – Lowell Observatory-LONEOS MPS 37402
2001 09 18.33033 01 04 39.07 +00 00 29.1   699 – Lowell Observatory-LONEOS MPS 37402
2001 09 18.35384 01 04 37.99 +00 00 25.5   699 – Lowell Observatory-LONEOS MPS 37402
2001 09 19.33024 01 03 55.64 -00 01 59.7 18.0   704 – Lincoln Laboratory ETS, New Mexico MPS 36552
2001 09 19.34446 01 03 54.93 -00 02 01.9 18.0   704 – Lincoln Laboratory ETS, New Mexico MPS 36552
2001 09 19.35882 01 03 54.31 -00 02 04.3 18.6   704 – Lincoln Laboratory ETS, New Mexico MPS 36552
2001 09 19.37298 01 03 53.64 -00 02 05.9 18.2   704 – Lincoln Laboratory ETS, New Mexico MPS 36552
2001 09 19.38711 01 03 53.02 -00 02 08.0 18.2   704 – Lincoln Laboratory ETS, New Mexico MPS 36552
2001 09 21.32135 01 02 25.58 -00 07 01.3 17.8   704 – Lincoln Laboratory ETS, New Mexico MPS 36552
2001 09 21.33599 01 02 24.87 -00 07 03.8 18.1   704 – Lincoln Laboratory ETS, New Mexico MPS 36552
2001 09 21.35026 01 02 24.19 -00 07 05.9 18.0   704 – Lincoln Laboratory ETS, New Mexico MPS 36552
2001 09 21.36441 01 02 23.48 -00 07 07.8 18.4   704 – Lincoln Laboratory ETS, New Mexico MPS 36552
2001 09 21.37900 01 02 22.77 -00 07 10.3 18.3   704 – Lincoln Laboratory ETS, New Mexico MPS 36552
2001 10 07.35915 00 48 20.01 -00 46 17.8 18.0   644 – Palomar Mountain/NEAT MPS 37402
2001 10 07.38049 00 48 18.76 -00 46 20.5 18.0   644 – Palomar Mountain/NEAT MPS 37402
2001 10 07.40178 00 48 17.53 -00 46 23.2 18.0   644 – Palomar Mountain/NEAT MPS 37402
2001 10 13.17436 00 42 58.35 -00 56 43.9 18.0   704 – Lincoln Laboratory ETS, New Mexico MPS 37402
2001 10 13.19058 00 42 57.40 -00 56 45.7 18.2   704 – Lincoln Laboratory ETS, New Mexico MPS 37402
2001 10 13.20671 00 42 56.48 -00 56 46.9 18.2   704 – Lincoln Laboratory ETS, New Mexico MPS 37402
2001 10 13.22257 00 42 55.58 -00 56 48.5 18.2   704 – Lincoln Laboratory ETS, New Mexico MPS 37402
2001 10 13.23928 00 42 54.64 -00 56 49.4 18.2   704 – Lincoln Laboratory ETS, New Mexico MPS 37402
2001 10 14.346000 00 41 54.540 -00 58 24.70 17.99 V 645 – Apache Point-Sloan Digital Sky Survey MPS 79486
2001 10 14.349472 00 41 54.344 -00 58 24.96 18.84   645 – Apache Point-Sloan Digital Sky Survey MPS 79486
2001 10 15.339800 00 41 01.436 -00 59 41.52 18.03 V 645 – Apache Point-Sloan Digital Sky Survey MPS 79486
2001 10 15.343272 00 41 01.245 -00 59 41.77 18.90   645 – Apache Point-Sloan Digital Sky Survey MPS 79486
2001 10 16.25670 00 40 13.19 -01 00 45.5 18.7   704 – Lincoln Laboratory ETS, New Mexico MPS 37402
2001 10 16.27335 00 40 12.25 -01 00 46.7 18.7   704 – Lincoln Laboratory ETS, New Mexico MPS 37402
2001 10 16.28993 00 40 11.36 -01 00 47.7 18.6   704 – Lincoln Laboratory ETS, New Mexico MPS 37402
2001 10 16.30724 00 40 10.38 -01 00 49.5 18.6   704 – Lincoln Laboratory ETS, New Mexico MPS 37402
2001 10 16.32322 00 40 09.53 -01 00 50.3 18.8   704 – Lincoln Laboratory ETS, New Mexico MPS 37402
2001 10 17.42864 00 39 11.93 -01 01 57.3 18.4   644 – Palomar Mountain/NEAT MPS 38834
2001 10 17.45033 00 39 10.78 -01 01 58.5 18.5   644 – Palomar Mountain/NEAT MPS 38834
2001 10 17.47202 00 39 09.64 -01 01 59.8 18.5   644 – Palomar Mountain/NEAT MPS 38834
2001 10 19.18215 00 37 43.38 -01 03 23.7 17.9 R 699 – Lowell Observatory-LONEOS MPS 38834
2001 10 19.20567 00 37 42.15 -01 03 24.8   699 – Lowell Observatory-LONEOS MPS 38834
2001 10 19.22914 00 37 40.90 -01 03 25.5   699 – Lowell Observatory-LONEOS MPS 38834
2001 10 19.25246 00 37 39.73 -01 03 26.9   699 – Lowell Observatory-LONEOS MPS 38834
2001 10 20.25934 00 36 49.91 -01 04 03.4 18.0   704 – Lincoln Laboratory ETS, New Mexico MPS 38835
2001 10 20.27577 00 36 49.09 -01 04 04.2 18.2   704 – Lincoln Laboratory ETS, New Mexico MPS 38835
2001 10 20.29219 00 36 48.23 -01 04 04.9 18.3   704 – Lincoln Laboratory ETS, New Mexico MPS 38835
2001 10 20.30862 00 36 47.39 -01 04 05.4 18.2   704 – Lincoln Laboratory ETS, New Mexico MPS 38835
2001 10 20.32506 00 36 46.55 -01 04 05.8 18.1   704 – Lincoln Laboratory ETS, New Mexico MPS 38835
2001 10 23.18488 00 34 31.94 -01 04 56.4 18.3   704 – Lincoln Laboratory ETS, New Mexico MPS 38835
2001 10 23.20161 00 34 31.15 -01 04 56.6 18.6   704 – Lincoln Laboratory ETS, New Mexico MPS 38835
2001 10 23.21834 00 34 30.34 -01 04 58.2 19.0   704 – Lincoln Laboratory ETS, New Mexico MPS 38835
2001 10 23.25137 00 34 28.75 -01 04 56.7 18.1   704 – Lincoln Laboratory ETS, New Mexico MPS 38835
2001 10 24.16799 00 33 47.86 -01 04 55.9 18.0   704 – Lincoln Laboratory ETS, New Mexico MPS 38835
2001 10 24.18450 00 33 47.07 -01 04 55.6 18.3   704 – Lincoln Laboratory ETS, New Mexico MPS 38835
2001 10 24.20107 00 33 46.30 -01 04 55.3 18.3   704 – Lincoln Laboratory ETS, New Mexico MPS 38835
2001 10 24.21764 00 33 45.54 -01 04 55.5 18.4   704 – Lincoln Laboratory ETS, New Mexico MPS 38835
2001 10 24.23419 00 33 44.76 -01 04 55.4 18.4   704 – Lincoln Laboratory ETS, New Mexico MPS 38835
2001 11 05.12530 00 26 44.00 -00 51 35.3 18.7   704 – Lincoln Laboratory ETS, New Mexico MPS 40118
2001 11 05.13956 00 26 43.58 -00 51 31.8 18.4   704 – Lincoln Laboratory ETS, New Mexico MPS 40118
2001 11 05.15375 00 26 43.18 -00 51 30.1 18.6   704 – Lincoln Laboratory ETS, New Mexico MPS 40118
2001 11 08.25425 00 25 31.80 -00 43 56.1 18.7   644 – Palomar Mountain/NEAT MPS 40118
2001 11 08.26489 00 25 31.56 -00 43 54.3 18.2   644 – Palomar Mountain/NEAT MPS 40118
